Lyndonville, VT

9:22 PM EDT on September 24, 2016 (GMT -0400)
Lyndonville

Weather History for KCDA - April, 2013

Change the Weather History Date:

Monday, April 1, 2013

  Actual Average (K1V4) Record (K1V4)
Temperature  
Mean Temperature 35 °F 38 °F  
Max Temperature 43 °F 49 °F 82 °F (1998)
Min Temperature 27 °F 27 °F -1 °F (1923)
Degree Days  
Heating Degree Days 30 27  
Month to date heating degree days 27  
Since 1 July heating degree days 6827  
Cooling Degree Days 0 0  
Month to date cooling degree days 0  
Year to date cooling degree days 0  
Moisture  
Dew Point 29 °F    
Average Humidity 77    
Maximum Humidity 92    
Minimum Humidity 47    
Precipitation  
Precipitation 0.00 in 0.09 in 1.40 in (2003)
Month to date precipitation 0.09  
Year to date precipitation 7.28  
Sea Level Pressure  
Sea Level Pressure 29.61 in    
Wind  
Wind Speed 6 mph (SW)    
Max Wind Speed 22 mph    
Max Gust Speed 31 mph    
Visibility 8 miles    
Events Fog , Rain , Snow    
T = Trace of Precipitation, MM = Missing Value Source: NWS Daily Summary

Daily Weather History Graph

Daily Weather History Graph

Search for Another Location

Airport or City:

Trip Planner

Search our weather history database for the weather conditions in past years. The results will help you decide how hot, cold, wet, or windy it might be!

Date:

Astronomy

Apr. 01, 2013 Rise Set
Actual Time 6:28 AM EDT 7:15 PM EDT
Civil Twilight 5:59 AM EDT 7:45 PM EDT
Nautical Twilight 5:24 AM EDT 8:20 PM EDT
Astronomical Twilight 4:47 AM EDT 8:57 PM EDT
Moon 12:31 AM EDT (4/1) 10:01 AM EDT (4/1)
Length of Visible Light 13h 46m
Length of Day
12h 47m
Waning Gibbous, 67% of the Moon is Illuminated
Apr 1
Waning Gibbous
Apr 3
Last Quarter
Apr 10
New
Apr 18
First Quarter
Apr 25
Full

Hourly Weather History & Observations

Time (EDT) Temp. Windchill Dew Point Humidity Pressure Visibility Wind Dir Wind Speed Gust Speed Precip Events Conditions
12:15 AM 38.7 °F 33.6 °F 34.7 °F 86% 29.75 in 10.0 mi SSE 6.9 mph - N/A Rain Light Rain
12:35 AM 38.7 °F 35.2 °F 35.1 °F 87% 29.74 in 7.0 mi South 4.6 mph - N/A Rain Light Rain
12:55 AM 38.1 °F 35.7 °F 34.9 °F 88% 29.72 in 7.0 mi SSE 3.5 mph - N/A Rain Light Rain
1:15 AM 37.8 °F - 34.7 °F 89% 29.72 in 7.0 mi Calm Calm - N/A Rain Light Rain
1:35 AM 37.4 °F - 34.7 °F 90% 29.70 in 5.0 mi Calm Calm - N/A   Drizzle
1:55 AM 37.4 °F - 34.7 °F 90% 29.69 in 2.5 mi Calm Calm - N/A Rain Rain
2:15 AM 37.4 °F 34.9 °F 34.7 °F 90% 29.69 in 5.0 mi South 3.5 mph - N/A Rain Light Rain
2:35 AM 37.0 °F 34.5 °F 34.7 °F 91% 29.68 in 3.0 mi South 3.5 mph - N/A Rain Light Rain
2:55 AM 36.3 °F 32.5 °F 33.8 °F 91% 29.67 in 7.0 mi South 4.6 mph - N/A Rain Light Rain
3:15 AM 36.0 °F 32.1 °F 33.4 °F 91% 29.66 in 7.0 mi South 4.6 mph - N/A   Drizzle
3:35 AM 35.8 °F 30.9 °F 33.3 °F 91% 29.65 in 7.0 mi South 5.8 mph - N/A Rain Light Rain
3:55 AM 35.6 °F 32.8 °F 32.9 °F 90% 29.64 in 10.0 mi SSE 3.5 mph - N/A Rain Light Rain
4:15 AM 35.6 °F 32.8 °F 32.9 °F 90% 29.63 in 7.0 mi SSE 3.5 mph - N/A   Drizzle
4:35 AM 35.2 °F - 32.9 °F 91% 29.62 in 5.0 mi Calm Calm - N/A   Drizzle
4:55 AM 35.1 °F - 32.5 °F 91% 29.61 in 7.0 mi Calm Calm - N/A   Light Drizzle
5:15 AM 35.1 °F - 32.5 °F 91% 29.61 in 0.5 mi Calm Calm - N/A Fog Fog
5:35 AM 35.1 °F - 32.9 °F 92% 29.60 in 4.0 mi Calm Calm - N/A   Overcast
5:55 AM 35.1 °F - 32.9 °F 92% 29.60 in 10.0 mi Calm Calm - N/A   Overcast
6:15 AM 35.1 °F - 32.9 °F 92% 29.60 in 10.0 mi Calm Calm - N/A   Overcast
6:35 AM 35.1 °F - 32.9 °F 92% 29.60 in 1.5 mi Calm Calm - N/A   Overcast
6:55 AM 35.1 °F 32.2 °F 32.9 °F 92% 29.60 in 4.0 mi ESE 3.5 mph - N/A   Overcast
7:15 AM 35.1 °F 31.0 °F 32.9 °F 92% 29.60 in 10.0 mi SE 4.6 mph - N/A   Overcast
7:35 AM 35.2 °F 31.2 °F 33.1 °F 92% 29.60 in 10.0 mi SE 4.6 mph - N/A   Overcast
7:55 AM 35.6 °F 32.8 °F 33.1 °F 91% 29.60 in 10.0 mi SSE 3.5 mph - N/A   Overcast
8:15 AM 36.0 °F 33.3 °F 33.3 °F 90% 29.60 in 10.0 mi SE 3.5 mph - N/A   Overcast
8:35 AM 35.8 °F 33.0 °F 33.1 °F 90% 29.59 in 10.0 mi SE 3.5 mph - N/A   Overcast
8:55 AM 36.5 °F 32.7 °F 33.8 °F 90% 29.59 in 10.0 mi SE 4.6 mph - N/A   Overcast
9:15 AM 37.2 °F 32.6 °F 34.0 °F 88% 29.57 in 10.0 mi SE 5.8 mph - N/A   Overcast
9:35 AM 38.7 °F 32.9 °F 35.1 °F 87% 29.56 in 10.0 mi SSE 8.1 mph - N/A   Overcast
9:55 AM 39.6 °F 33.5 °F 35.8 °F 86% 29.55 in 10.0 mi South 9.2 mph - N/A   Overcast
10:15 AM 39.9 °F 35.8 °F 35.6 °F 85% 29.54 in 10.0 mi SSE 5.8 mph - N/A   Overcast
10:35 AM 40.3 °F 36.3 °F 35.6 °F 83% 29.54 in 10.0 mi SSE 5.8 mph - N/A   Overcast
10:55 AM 41.0 °F 37.1 °F 35.6 °F 81% 29.54 in 10.0 mi SSE 5.8 mph - N/A   Overcast
11:15 AM 42.1 °F 38.4 °F 35.8 °F 78% 29.53 in 10.0 mi South 5.8 mph - N/A   Overcast
11:35 AM 42.1 °F 36.6 °F 35.8 °F 78% 29.53 in 10.0 mi South 9.2 mph - N/A   Overcast
11:55 AM 42.1 °F 36.6 °F 35.6 °F 78% 29.52 in 10.0 mi South 9.2 mph - N/A   Overcast
12:15 PM 41.7 °F 38.8 °F 35.2 °F 78% 29.52 in 10.0 mi South 4.6 mph - N/A   Overcast
12:35 PM 42.1 °F 39.2 °F 35.6 °F 78% 29.51 in 10.0 mi SSE 4.6 mph - N/A   Overcast
12:55 PM 43.0 °F 41.3 °F 35.6 °F 75% 29.51 in 10.0 mi South 3.5 mph - N/A   Overcast
1:15 PM 43.2 °F 41.5 °F 35.4 °F 74% 29.50 in 7.0 mi SSW 3.5 mph - N/A   Overcast
1:35 PM 43.3 °F 38.1 °F 35.8 °F 75% 29.49 in 10.0 mi SSW 9.2 mph - N/A   Overcast
1:55 PM 43.2 °F 38.4 °F 35.6 °F 75% 29.49 in 10.0 mi SSW 8.1 mph - N/A   Overcast
2:15 PM 42.4 °F 37.0 °F 35.4 °F 76% 29.50 in 7.0 mi WSW 9.2 mph 17.3 mph N/A Rain Light Rain
2:35 PM 41.9 °F 35.9 °F 34.9 °F 76% 29.50 in 10.0 mi WSW 10.4 mph - N/A Rain Light Rain
2:55 PM 41.9 °F 38.2 °F 35.6 °F 78% 29.50 in 7.0 mi WSW 5.8 mph - N/A   Light Drizzle
3:15 PM 39.7 °F 29.7 °F 33.6 °F 79% 29.52 in 5.0 mi West 21.9 mph 31.1 mph N/A Rain Rain
3:35 PM 34.5 °F 24.1 °F 31.5 °F 89% 29.53 in 1.0 mi West 17.3 mph 26.5 mph N/A Snow Light Snow
3:55 PM 34.2 °F 23.0 °F 31.1 °F 89% 29.53 in 1.0 mi West 19.6 mph 25.3 mph N/A Snow Light Snow
4:15 PM 35.1 °F 26.9 °F 31.3 °F 86% 29.55 in 4.0 mi West 11.5 mph 23.0 mph N/A Snow Light Snow
4:35 PM 36.1 °F 26.2 °F 30.7 °F 81% 29.56 in 10.0 mi West 17.3 mph 24.2 mph N/A   Mostly Cloudy
4:55 PM 35.4 °F 25.6 °F 30.0 °F 81% 29.57 in 3.0 mi West 16.1 mph 25.3 mph N/A Snow Light Snow
5:15 PM 34.9 °F 25.7 °F 29.1 °F 79% 29.58 in 2.5 mi West 13.8 mph 23.0 mph N/A Snow Light Snow
5:35 PM 35.4 °F 24.9 °F 28.9 °F 77% 29.60 in 7.0 mi West 18.4 mph 23.0 mph N/A Snow Light Snow
5:55 PM 35.4 °F 27.8 °F 26.4 °F 70% 29.60 in 10.0 mi West 10.4 mph 16.1 mph N/A   Overcast
6:15 PM 34.9 °F 26.6 °F 23.5 °F 63% 29.62 in 10.0 mi West 11.5 mph 19.6 mph N/A   Mostly Cloudy
6:35 PM 35.1 °F 29.3 °F 20.1 °F 55% 29.62 in 10.0 mi WSW 6.9 mph 16.1 mph N/A   Scattered Clouds
6:55 PM 33.8 °F 26.4 °F 19.4 °F 56% 29.63 in 10.0 mi West 9.2 mph - N/A   Scattered Clouds
7:15 PM 32.9 °F 22.0 °F 14.9 °F 48% 29.64 in 10.0 mi West 17.3 mph 23.0 mph N/A   Scattered Clouds
7:35 PM 32.0 °F 21.2 °F 15.3 °F 50% 29.64 in 10.0 mi West 16.1 mph 23.0 mph N/A   Scattered Clouds
7:55 PM 31.5 °F 19.4 °F 14.0 °F 49% 29.64 in 10.0 mi West 19.6 mph 28.8 mph N/A   Scattered Clouds
8:15 PM 31.1 °F 19.3 °F 13.1 °F 47% 29.66 in 10.0 mi West 18.4 mph 26.5 mph N/A   Mostly Cloudy
8:35 PM 30.7 °F 18.8 °F 13.8 °F 50% 29.67 in 10.0 mi West 18.4 mph 31.1 mph N/A   Mostly Cloudy
8:55 PM 30.2 °F 19.3 °F 13.6 °F 50% 29.68 in 10.0 mi West 15.0 mph 26.5 mph N/A   Overcast
9:15 PM 30.0 °F 19.1 °F 14.5 °F 53% 29.69 in 10.0 mi West 15.0 mph 25.3 mph N/A   Overcast
9:35 PM 29.3 °F 20.8 °F 14.7 °F 55% 29.69 in 10.0 mi West 9.2 mph 18.4 mph N/A   Mostly Cloudy
9:55 PM 29.3 °F 20.8 °F 12.2 °F 49% 29.69 in 10.0 mi West 9.2 mph 20.7 mph N/A   Overcast
10:15 PM 29.1 °F 18.4 °F 12.4 °F 50% 29.70 in 10.0 mi West 13.8 mph 28.8 mph N/A   Overcast
10:35 PM 28.9 °F 21.1 °F 12.2 °F 50% 29.70 in 10.0 mi West 8.1 mph - N/A   Overcast
10:55 PM 28.4 °F 19.1 °F 11.5 °F 49% 29.70 in 10.0 mi West 10.4 mph 24.2 mph N/A   Mostly Cloudy
11:15 PM 28.0 °F 16.1 °F 11.8 °F 51% 29.70 in 10.0 mi West 16.1 mph 23.0 mph N/A   Mostly Cloudy
11:35 PM 27.7 °F 15.2 °F 12.7 °F 54% 29.70 in 10.0 mi West 17.3 mph 26.5 mph N/A   Overcast
11:55 PM 27.1 °F 14.5 °F 15.1 °F 60% 29.70 in 10.0 mi WNW 17.3 mph 21.9 mph N/A Snow Light Snow